RPB7269 SKRG-SKBO

Flight info

Callsign RPB7269
Flight time 0h 22m
Altitude 25000
Route ISVA2B ISVAT ISVA5W
Aircraft B738/M-SDE3FGHIRWY/S

Departure

Time 2026-04-23 22:44
Airport Jose Maria Córdova International Airport (SKRG)

Arrival

Time 2026-04-23 23:07
Airport El Dorado International Airport (SKBO)
Time Latitude Longitude Altitude Speed Heading
2026-04-23 22:20 6.17008 -75.42736 7017 ft 0 kts 316°
2026-04-23 22:35 6.17001 -75.42728 7015 ft 4 kts 318°
2026-04-23 22:35 6.16983 -75.42712 7015 ft 4 kts 329°
2026-04-23 22:36 6.16965 -75.42708 7017 ft 4 kts 47°
2026-04-23 22:36 6.16951 -75.42730 7015 ft 4 kts 57°
2026-04-23 22:36 6.16954 -75.42728 7017 ft 4 kts 52°
2026-04-23 22:36 6.16971 -75.42707 7018 ft 4 kts 48°
2026-04-23 22:37 6.16991 -75.42688 7016 ft 4 kts 41°
2026-04-23 22:37 6.17005 -75.42677 7015 ft 0 kts 37°
2026-04-23 22:39 6.17007 -75.42675 7015 ft 2 kts 38°
2026-04-23 22:39 6.17034 -75.42650 7015 ft 8 kts 54°
2026-04-23 22:39 6.17027 -75.42583 7019 ft 12 kts 138°
2026-04-23 22:40 6.16938 -75.42528 7019 ft 18 kts 150°
2026-04-23 22:40 6.16799 -75.42484 7014 ft 24 kts 179°
2026-04-23 22:40 6.16363 -75.42482 6988 ft 35 kts 179°
2026-04-23 22:41 6.16142 -75.42481 6985 ft 29 kts 179°
2026-04-23 22:41 6.15946 -75.42479 6981 ft 27 kts 180°
2026-04-23 22:41 6.15762 -75.42478 6979 ft 26 kts 179°
2026-04-23 22:41 6.15590 -75.42477 6978 ft 24 kts 179°
2026-04-23 22:42 6.15429 -75.42475 6978 ft 23 kts 179°
2026-04-23 22:42 6.15273 -75.42475 6977 ft 22 kts 179°
2026-04-23 22:42 6.15122 -75.42473 6977 ft 21 kts 180°
2026-04-23 22:42 6.14975 -75.42473 6976 ft 21 kts 180°
2026-04-23 22:43 6.14899 -75.42415 6976 ft 15 kts 89°
2026-04-23 22:43 6.14943 -75.42328 6973 ft 10 kts 35°
2026-04-23 22:43 6.14979 -75.42304 6975 ft 6 kts 12°
2026-04-23 22:43 6.15021 -75.42303 6977 ft 8 kts 358°
2026-04-23 22:44 6.15259 -75.42305 6979 ft 69 kts 359°
2026-04-23 22:44 6.15972 -75.42310 6980 ft 134 kts 360°
2026-04-23 22:44 6.17087 -75.42315 7028 ft 185 kts
2026-04-23 22:44 6.18460 -75.42314 7561 ft 197 kts
2026-04-23 22:45 6.19814 -75.42313 8527 ft 193 kts
2026-04-23 22:45 6.21153 -75.42247 9260 ft 197 kts 14°
2026-04-23 22:45 6.22303 -75.41510 9775 ft 205 kts 53°
2026-04-23 22:45 6.22802 -75.40111 9984 ft 226 kts 91°
2026-04-23 22:46 6.22359 -75.38586 10412 ft 234 kts 124°
2026-04-23 22:46 6.21370 -75.37278 10999 ft 237 kts 128°
2026-04-23 22:46 6.20351 -75.35965 11571 ft 239 kts 128°
2026-04-23 22:46 6.19333 -75.34630 12138 ft 242 kts 128°
2026-04-23 22:47 6.18322 -75.33291 12710 ft 245 kts 128°
2026-04-23 22:47 6.17263 -75.31939 13233 ft 250 kts 136°
2026-04-23 22:47 6.15739 -75.31013 13394 ft 266 kts 159°
2026-04-23 22:47 6.13952 -75.30304 13597 ft 285 kts 160°
2026-04-23 22:48 6.12024 -75.29558 13784 ft 308 kts 160°
2026-04-23 22:48 6.09991 -75.28764 14334 ft 317 kts 160°
2026-04-23 22:48 6.07929 -75.27951 15062 ft 320 kts 159°
2026-04-23 22:48 6.05852 -75.27126 15793 ft 322 kts 159°
2026-04-23 22:49 6.03757 -75.26290 16493 ft 325 kts 159°
2026-04-23 22:49 6.01642 -75.25441 17171 ft 329 kts 159°
2026-04-23 22:49 5.99460 -75.24565 17415 ft 348 kts 159°
2026-04-23 22:49 5.97150 -75.23637 17549 ft 367 kts 159°
2026-04-23 22:50 5.94722 -75.22660 17680 ft 384 kts 159°
2026-04-23 22:50 5.92217 -75.21651 17799 ft 400 kts 158°
2026-04-23 22:50 5.89584 -75.20590 17902 ft 415 kts 158°
2026-04-23 22:50 5.86863 -75.19495 18097 ft 425 kts 158°
2026-04-23 22:51 5.84104 -75.18383 18495 ft 429 kts 158°
2026-04-23 22:51 5.81329 -75.17264 18960 ft 430 kts 158°
2026-04-23 22:51 5.78542 -75.16142 19378 ft 433 kts 158°
2026-04-23 22:51 5.75736 -75.15012 19770 ft 436 kts 158°
2026-04-23 22:52 5.72911 -75.13875 20142 ft 439 kts 159°
2026-04-23 22:52 5.70092 -75.12740 20787 ft 434 kts 158°
2026-04-23 22:52 5.67286 -75.11602 21069 ft 437 kts 158°
2026-04-23 22:52 5.64448 -75.10435 21092 ft 445 kts 158°
2026-04-23 22:53 5.61565 -75.09245 21083 ft 452 kts 158°
2026-04-23 22:53 5.58636 -75.08033 21070 ft 459 kts 158°
2026-04-23 22:53 5.55662 -75.06806 21048 ft 465 kts 158°
2026-04-23 22:53 5.52664 -75.05569 21034 ft 462 kts 158°
2026-04-23 22:54 5.49756 -75.04371 21002 ft 442 kts 158°
2026-04-23 22:54 5.46967 -75.03223 20983 ft 425 kts 158°
2026-04-23 22:54 5.44283 -75.02117 20970 ft 409 kts 158°
2026-04-23 22:54 5.41702 -75.01003 20957 ft 402 kts 152°
2026-04-23 22:55 5.39346 -74.99415 20967 ft 415 kts 140°
2026-04-23 22:55 5.37246 -74.97377 20932 ft 427 kts 130°
2026-04-23 22:55 5.35327 -74.95057 20934 ft 437 kts 129°
2026-04-23 22:55 5.33384 -74.92665 20902 ft 446 kts 129°
2026-04-23 22:56 5.31428 -74.90252 20889 ft 445 kts 129°
2026-04-23 22:56 5.29475 -74.87851 20877 ft 443 kts 129°
2026-04-23 22:56 5.27540 -74.85485 20853 ft 432 kts 129°
2026-04-23 22:56 5.25663 -74.83202 20845 ft 416 kts 129°
2026-04-23 22:57 5.23857 -74.81012 20841 ft 401 kts 129°
2026-04-23 22:57 5.22094 -74.78876 20856 ft 397 kts 129°
2026-04-23 22:57 5.20306 -74.76710 20872 ft 409 kts 129°
2026-04-23 22:57 5.18474 -74.74495 20879 ft 414 kts 129°
2026-04-23 22:58 5.16644 -74.72282 20703 ft 411 kts 129°
2026-04-23 22:58 5.14812 -74.70059 19857 ft 416 kts 129°
2026-04-23 22:58 5.12938 -74.67791 18674 ft 428 kts 129°
2026-04-23 22:58 5.11017 -74.65462 17606 ft 438 kts 129°
2026-04-23 22:59 5.09077 -74.63110 16854 ft 436 kts 129°
2026-04-23 22:59 5.07174 -74.60807 16196 ft 425 kts 130°
2026-04-23 22:59 5.05293 -74.58579 15163 ft 415 kts 131°
2026-04-23 22:59 5.03377 -74.56414 13999 ft 414 kts 132°
2026-04-23 23:00 5.01457 -74.54277 13130 ft 411 kts 132°
2026-04-23 23:00 4.99580 -74.52186 12914 ft 393 kts 132°
2026-04-23 23:00 4.97811 -74.50204 12768 ft 374 kts 132°
2026-04-23 23:00 4.96116 -74.48295 12728 ft 358 kts 131°
2026-04-23 23:01 4.94501 -74.46471 12726 ft 342 kts 131°
2026-04-23 23:01 4.92955 -74.44722 12752 ft 327 kts 131°
2026-04-23 23:01 4.91486 -74.43059 12755 ft 308 kts 131°
2026-04-23 23:01 4.90106 -74.41496 12769 ft 292 kts 131°
2026-04-23 23:02 4.88781 -74.39999 12776 ft 285 kts 131°
2026-04-23 23:02 4.87473 -74.38521 12590 ft 282 kts 131°
2026-04-23 23:02 4.86216 -74.37011 12244 ft 283 kts 128°
2026-04-23 23:02 4.85012 -74.35445 11951 ft 282 kts 127°
2026-04-23 23:03 4.83860 -74.33909 11936 ft 267 kts 127°
2026-04-23 23:03 4.82776 -74.32459 11876 ft 252 kts 127°
2026-04-23 23:03 4.81750 -74.31092 11752 ft 241 kts 127°
2026-04-23 23:03 4.80752 -74.29770 11489 ft 234 kts 127°
2026-04-23 23:04 4.80111 -74.28918 11286 ft 229 kts 127°
2026-04-23 23:04 4.79172 -74.27667 10972 ft 220 kts 127°
2026-04-23 23:04 4.78266 -74.26462 10695 ft 212 kts 127°
2026-04-23 23:04 4.77402 -74.25314 10440 ft 200 kts 127°
2026-04-23 23:05 4.76576 -74.24215 10198 ft 193 kts 126°
2026-04-23 23:05 4.75777 -74.23154 9911 ft 188 kts 126°
2026-04-23 23:05 4.74989 -74.22107 9665 ft 190 kts 126°
2026-04-23 23:05 4.74190 -74.21044 9413 ft 191 kts 126°
2026-04-23 23:06 4.73391 -74.19982 9152 ft 189 kts 126°
2026-04-23 23:06 4.72598 -74.18944 8914 ft 186 kts 126°
2026-04-23 23:06 4.71825 -74.17919 8681 ft 183 kts 126°
2026-04-23 23:06 4.71047 -74.16906 8437 ft 183 kts 127°
2026-04-23 23:07 4.70321 -74.15944 8373 ft 151 kts 126°
2026-04-23 23:07 4.69859 -74.15337 8372 ft 64 kts 126°
2026-04-23 23:07 4.69728 -74.15073 8372 ft 28 kts 101°
2026-04-23 23:07 4.69714 -74.14972 8372 ft 9 kts 96°
2026-04-23 23:08 4.69707 -74.14914 8372 ft 8 kts 96°
2026-04-23 23:08 4.69718 -74.14859 8372 ft 8 kts 64°
2026-04-23 23:08 4.69754 -74.14815 8372 ft 8 kts 36°
2026-04-23 23:08 4.69804 -74.14780 8372 ft 9 kts 35°
2026-04-23 23:09 4.69857 -74.14741 8372 ft 10 kts 37°
2026-04-23 23:09 4.69912 -74.14699 8373 ft 10 kts 37°
2026-04-23 23:09 4.69971 -74.14655 8372 ft 11 kts 37°
2026-04-23 23:09 4.70033 -74.14608 8372 ft 11 kts 43°
2026-04-23 23:10 4.70016 -74.14538 8372 ft 11 kts 127°
2026-04-23 23:10 4.69966 -74.14473 8372 ft 12 kts 128°
2026-04-23 23:10 4.69914 -74.14406 8373 ft 12 kts 127°
2026-04-23 23:10 4.69883 -74.14358 8372 ft 3 kts 186°
2026-04-23 23:11 4.69866 -74.14369 8372 ft 3 kts 221°
2026-04-23 23:11 4.69850 -74.14387 8372 ft 4 kts 230°
2026-04-23 23:11 4.69840 -74.14399 8372 ft 0 kts 229°